| time (UTC) | temp C | wind direction | speed KPH | gust KPH | rain 1hr cm | rain 24hr cm | rain mn cm | humidity % | barometer mb |
| 20260504023353 | 7 | 140 | 0.0 | 0.0 | 0.00 | 0.00 | 0.00 | 71 | 1014.4 |
| 20260504022854 | 7 | 140 | 0.0 | 0.0 | 0.00 | 0.00 | 0.00 | 70 | 1014.5 |
| 20260504022354 | 7 | 140 | 0.0 | 0.0 | 0.00 | 0.00 | 0.00 | 69 | 1014.5 |
| 20260504021836 | 7 | 140 | 0.0 | 0.0 | 0.00 | 0.00 | 0.00 | 69 | 1014.5 |
| 20260504021350 | 7 | 140 | 0.0 | 0.0 | 0.00 | 0.00 | 0.00 | 68 | 1014.5 |
| 20260504020905 | 8 | 140 | 0.0 | 0.0 | 0.00 | 0.00 | 0.00 | 68 | 1014.5 |
| 20260504020331 | 8 | 140 | 0.0 | 0.0 | 0.00 | 0.00 | 0.00 | 67 | 1014.5 |
| 20260504015844 | 8 | 140 | 0.0 | 0.0 | 0.00 | 0.00 | 0.00 | 67 | 1014.5 |
| 20260504015330 | 8 | 140 | 0.0 | 0.0 | 0.00 | 0.00 | 0.00 | 65 | 1014.5 |
| 20260504014835 | 8 | 140 | 0.0 | 0.0 | 0.00 | 0.00 | 0.00 | 65 | 1014.5 |
| 20260504014329 | 8 | 140 | 0.0 | 0.0 | 0.00 | 0.00 | 0.00 | 65 | 1014.4 |
| 20260504013901 | 8 | 140 | 0.0 | 0.0 | 0.00 | 0.00 | 0.00 | 64 | 1014.5 |
| 20260504013349 | 8 | 140 | 0.0 | 0.0 | 0.00 | 0.00 | 0.00 | 63 | 1014.5 |
| 20260504012832 | 9 | 140 | 0.0 | 0.0 | 0.00 | 0.00 | 0.00 | 63 | 1014.4 |
| 20260504012340 | 9 | 140 | 0.0 | 0.0 | 0.00 | 0.00 | 0.00 | 62 | 1014.3 |
| 20260504011839 | 9 | 140 | 0.0 | 0.0 | 0.00 | 0.00 | 0.00 | 61 | 1014.3 |
| 20260504011345 | 10 | 140 | 0.0 | 0.0 | 0.00 | 0.00 | 0.00 | 60 | 1014.2 |
| 20260504010839 | 10 | 140 | 0.0 | 0.0 | 0.00 | 0.00 | 0.00 | 59 | 1014.0 |
| 20260504010341 | 10 | 140 | 0.0 | 0.0 | 0.00 | 0.00 | 0.00 | 58 | 1014.1 |
| 20260504005847 | 10 | 140 | 0.0 | 0.0 | 0.00 | 0.00 | 0.00 | 58 | 1014.0 |
| 20260504005326 | 10 | 140 | 0.0 | 0.0 | 0.00 | 0.00 | 0.00 | 57 | 1013.9 |
| 20260504004841 | 11 | 140 | 0.0 | 0.0 | 0.00 | 0.00 | 0.00 | 56 | 1013.9 |
| 20260504004352 | 11 | 140 | 0.0 | 0.0 | 0.00 | 0.00 | 0.00 | 55 | 1013.9 |
| 20260504003831 | 11 | 140 | 0.0 | 0.0 | 0.00 | 0.00 | 0.00 | 53 | 1013.8 |
| 20260504003332 | 11 | 140 | 0.0 | 0.0 | 0.00 | 0.00 | 0.00 | 52 | 1013.7 |
| 20260504002849 | 12 | 140 | 0.0 | 0.0 | 0.00 | 0.00 | 0.00 | 51 | 1013.8 |
| 20260504002337 | 12 | 140 | 0.0 | 0.0 | 0.00 | 0.00 | 0.00 | 49 | 1013.7 |
| 20260504001836 | 12 | 140 | 0.0 | 0.0 | 0.00 | 0.00 | 0.00 | 48 | 1013.6 |
| 20260504001347 | 12 | 140 | 0.0 | 0.0 | 0.00 | 0.00 | 0.00 | 47 | 1013.5 |
| 20260504000851 | 13 | 140 | 0.0 | 0.0 | 0.00 | 0.00 | 0.00 | 46 | 1013.5 |
| 20260504000353 | 13 | 140 | 0.0 | 0.0 | 0.00 | 0.00 | 0.00 | 44 | 1013.4 |
| 20260503235835 | 13 | 140 | 0.0 | 0.0 | 0.00 | 0.00 | 0.00 | 41 | 1013.4 |
| 20260503235328 | 14 | 140 | 0.0 | 0.0 | 0.00 | 0.00 | 0.00 | 40 | 1013.3 |
| 20260503234833 | 15 | 140 | 0.0 | 0.0 | 0.00 | 0.00 | 0.00 | 38 | 1013.3 |
| 20260503234329 | 15 | 125 | 0.0 | 0.0 | 0.00 | 0.00 | 0.00 | 38 | 1013.3 |
| 20260503233844 | 15 | 119 | 0.0 | 0.0 | 0.00 | 0.00 | 0.00 | 35 | 1013.3 |
| 20260503233405 | 15 | 120 | 0.0 | 1.6 | 0.00 | 0.00 | 0.00 | 33 | 1013.3 |
| 20260503232835 | 16 | 120 | 0.0 | 1.6 | 0.00 | 0.00 | 0.00 | 33 | 1013.3 |
| 20260503232410 | 16 | 228 | 0.0 | 0.0 | 0.00 | 0.00 | 0.00 | 32 | 1013.2 |
| 20260503231845 | 16 | 227 | 0.0 | 0.0 | 0.00 | 0.00 | 0.00 | 31 | 1013.2 |
| 20260503231406 | 16 | 227 | 0.0 | 3.2 | 0.00 | 0.00 | 0.00 | 30 | 1013.2 |
| 20260503230842 | 16 | 227 | 0.0 | 3.2 | 0.00 | 0.00 | 0.00 | 28 | 1013.2 |
| 20260503230415 | 16 | 228 | 0.0 | 3.2 | 0.00 | 0.00 | 0.00 | 29 | 1013.1 |
| 20260503225828 | 16 | 161 | 0.0 | 1.6 | 0.00 | 0.00 | 0.00 | 32 | 1013.2 |
| 20260503225336 | 17 | 162 | 0.0 | 3.2 | 0.00 | 0.00 | 0.00 | 30 | 1013.2 |
| 20260503224848 | 17 | 162 | 0.0 | 3.2 | 0.00 | 0.00 | 0.00 | 29 | 1013.2 |
| 20260503224404 | 17 | 161 | 0.0 | 3.2 | 0.00 | 0.00 | 0.00 | 28 | 1013.2 |
| 20260503223838 | 17 | 161 | 0.0 | 3.2 | 0.00 | 0.00 | 0.00 | 27 | 1013.3 |
| 20260503223349 | 17 | 180 | 1.6 | 3.2 | 0.00 | 0.00 | 0.00 | 28 | 1013.3 |
| 20260503222856 | 17 | 182 | 1.6 | 3.2 | 0.00 | 0.00 | 0.00 | 28 | 1013.2 |
| 20260503222357 | 17 | 30 | 0.0 | 3.2 | 0.00 | 0.00 | 0.00 | 29 | 1013.3 |
| 20260503221844 | 17 | 30 | 0.0 | 3.2 | 0.00 | 0.00 | 0.00 | 30 | 1013.2 |
| 20260503221353 | 17 | 30 | 0.0 | 3.2 | 0.00 | 0.00 | 0.00 | 29 | 1013.2 |
| 20260503220858 | 17 | 360 | 1.6 | 4.8 | 0.00 | 0.00 | 0.00 | 29 | 1013.2 |
| 20260503220337 | 17 | 15 | 1.6 | 4.8 | 0.00 | 0.00 | 0.00 | 27 | 1013.2 |
| 20260503215831 | 17 | 179 | 1.6 | 6.4 | 0.00 | 0.00 | 0.00 | 27 | 1013.3 |
| 20260503215351 | 17 | 30 | 1.6 | 4.8 | 0.00 | 0.00 | 0.00 | 28 | 1013.1 |
| 20260503214842 | 17 | 66 | 1.6 | 3.2 | 0.00 | 0.00 | 0.00 | 29 | 1013.1 |
| 20260503214337 | 17 | 175 | 1.6 | 3.2 | 0.00 | 0.00 | 0.00 | 28 | 1013.0 |
| 20260503213909 | 17 | 87 | 0.0 | 6.4 | 0.00 | 0.00 | 0.00 | 29 | 1013.1 |
| 20260503213345 | 17 | 360 | 3.2 | 6.4 | 0.00 | 0.00 | 0.00 | 28 | 1013.2 |
| 20260503212840 | 17 | 360 | 1.6 | 4.8 | 0.00 | 0.00 | 0.00 | 28 | 1013.1 |
| 20260503212336 | 17 | 9 | 1.6 | 4.8 | 0.00 | 0.00 | 0.00 | 29 | 1013.0 |
| 20260503211912 | 17 | 19 | 0.0 | 6.4 | 0.00 | 0.00 | 0.00 | 27 | 1013.1 |
| 20260503211340 | 17 | 215 | 3.2 | 6.4 | 0.00 | 0.00 | 0.00 | 27 | 1013.1 |
| 20260503210841 | 17 | 302 | 1.6 | 6.4 | 0.00 | 0.00 | 0.00 | 25 | 1013.1 |
| 20260503210341 | 18 | 226 | 1.6 | 6.4 | 0.00 | 0.00 | 0.00 | 26 | 1013.0 |
| 20260503205858 | 18 | 244 | 3.2 | 6.4 | 0.00 | 0.00 | 0.00 | 24 | 1013.0 |
| 20260503205356 | 18 | 267 | 1.6 | 3.2 | 0.00 | 0.00 | 0.00 | 26 | 1013.1 |
| 20260503204854 | 18 | 45 | 0.0 | 4.8 | 0.00 | 0.00 | 0.00 | 25 | 1013.1 |
| 20260503204335 | 18 | 71 | 1.6 | 8.0 | 0.00 | 0.00 | 0.00 | 25 | 1013.1 |
| 20260503203850 | 19 | 69 | 3.2 | 8.0 | 0.00 | 0.00 | 0.00 | 24 | 1013.1 |
| 20260503203354 | 19 | 360 | 3.2 | 6.4 | 0.00 | 0.00 | 0.00 | 25 | 1013.0 |
| 20260503202857 | 19 | 10 | 1.6 | 6.4 | 0.00 | 0.00 | 0.00 | 24 | 1013.0 |
| 20260503202335 | 20 | 168 | 1.6 | 6.4 | 0.00 | 0.00 | 0.00 | 24 | 1013.1 |
| 20260503201904 | 20 | 256 | 1.6 | 6.4 | 0.00 | 0.00 | 0.00 | 24 | 1013.1 |
| 20260503201351 | 20 | 54 | 1.6 | 3.2 | 0.00 | 0.00 | 0.00 | 24 | 1013.1 |
| 20260503200827 | 19 | 218 | 1.6 | 6.4 | 0.00 | 0.00 | 0.00 | 23 | 1013.2 |
| 20260503200405 | 19 | 360 | 3.2 | 6.4 | 0.00 | 0.00 | 0.00 | 24 | 1013.4 |
| 20260503195829 | 19 | 213 | 3.2 | 6.4 | 0.00 | 0.00 | 0.00 | 25 | 1013.5 |
| 20260503195330 | 19 | 60 | 1.6 | 9.7 | 0.00 | 0.00 | 0.00 | 25 | 1013.5 |
| 20260503194849 | 18 | 331 | 1.6 | 9.7 | 0.00 | 0.00 | 0.00 | 24 | 1013.6 |
| 20260503194405 | 18 | 30 | 1.6 | 6.4 | 0.00 | 0.00 | 0.00 | 24 | 1013.7 |
| 20260503193837 | 19 | 40 | 1.6 | 6.4 | 0.00 | 0.00 | 0.00 | 24 | 1013.7 |
| 20260503193330 | 20 | 255 | 3.2 | 6.4 | 0.00 | 0.00 | 0.00 | 23 | 1013.9 |
| 20260503192828 | 19 | 296 | 1.6 | 6.4 | 0.00 | 0.00 | 0.00 | 27 | 1014.0 |
| 20260503192406 | 19 | 173 | 1.6 | 6.4 | 0.00 | 0.00 | 0.00 | 25 | 1013.9 |
| 20260503191838 | 18 | 177 | 1.6 | 6.4 | 0.00 | 0.00 | 0.00 | 25 | 1014.0 |
| 20260503191335 | 18 | 249 | 3.2 | 6.4 | 0.00 | 0.00 | 0.00 | 24 | 1014.1 |
| 20260503190843 | 18 | 36 | 1.6 | 9.7 | 0.00 | 0.00 | 0.00 | 27 | 1014.2 |
| 20260503190342 | 18 | 313 | 3.2 | 9.7 | 0.00 | 0.00 | 0.00 | 25 | 1014.1 |
| 20260503185852 | 18 | 283 | 3.2 | 11.3 | 0.00 | 0.00 | 0.00 | 25 | 1014.2 |
| 20260503185340 | 18 | 9 | 3.2 | 11.3 | 0.00 | 0.00 | 0.00 | 25 | 1014.2 |
| 20260503184848 | 17 | 46 | 3.2 | 11.3 | 0.00 | 0.00 | 0.00 | 25 | 1014.3 |
| 20260503184350 | 17 | 281 | 3.2 | 6.4 | 0.00 | 0.00 | 0.00 | 25 | 1014.3 |
| 20260503183831 | 17 | 253 | 3.2 | 6.4 | 0.00 | 0.00 | 0.00 | 27 | 1014.4 |
| 20260503183333 | 18 | 33 | 3.2 | 8.0 | 0.00 | 0.00 | 0.00 | 25 | 1014.5 |
| 20260503182825 | 17 | 236 | 1.6 | 8.0 | 0.00 | 0.00 | 0.00 | 29 | 1014.4 |
| 20260503182352 | 17 | 318 | 3.2 | 6.4 | 0.00 | 0.00 | 0.00 | 28 | 1014.5 |
| 20260503181851 | 17 | 57 | 1.6 | 6.4 | 0.00 | 0.00 | 0.00 | 28 | 1014.5 |
| 20260503181356 | 17 | 230 | 3.2 | 6.4 | 0.00 | 0.00 | 0.00 | 26 | 1014.6 |
| 20260503180833 | 17 | 68 | 1.6 | 9.7 | 0.00 | 0.00 | 0.00 | 28 | 1014.6 |
| 20260503180404 | 17 | 198 | 3.2 | 9.7 | 0.00 | 0.00 | 0.00 | 27 | 1014.6 |
| 20260503175837 | 17 | 234 | 3.2 | 6.4 | 0.00 | 0.00 | 0.00 | 27 | 1014.6 |
| 20260503175334 | 17 | 355 | 1.6 | 6.4 | 0.00 | 0.00 | 0.00 | 28 | 1014.5 |
| 20260503174839 | 17 | 266 | 1.6 | 6.4 | 0.00 | 0.00 | 0.00 | 27 | 1014.6 |
| 20260503174351 | 16 | 261 | 3.2 | 9.7 | 0.00 | 0.00 | 0.00 | 28 | 1014.5 |
| 20260503173831 | 16 | 337 | 1.6 | 6.4 | 0.00 | 0.00 | 0.00 | 29 | 1014.6 |
| 20260503173404 | 16 | 298 | 3.2 | 8.0 | 0.00 | 0.00 | 0.00 | 29 | 1014.7 |
| 20260503172838 | 16 | 32 | 3.2 | 9.7 | 0.00 | 0.00 | 0.00 | 28 | 1014.9 |
| 20260503172355 | 16 | 38 | 3.2 | 11.3 | 0.00 | 0.00 | 0.00 | 27 | 1014.9 |
| 20260503171853 | 16 | 229 | 4.8 | 11.3 | 0.00 | 0.00 | 0.00 | 26 | 1014.9 |
| 20260503171359 | 16 | 349 | 1.6 | 6.4 | 0.00 | 0.00 | 0.00 | 28 | 1015.0 |
| 20260503170831 | 16 | 15 | 3.2 | 11.3 | 0.00 | 0.00 | 0.00 | 29 | 1015.1 |
| 20260503170330 | 16 | 306 | 3.2 | 11.3 | 0.00 | 0.00 | 0.00 | 27 | 1015.1 |
| 20260503035847 | 8 | 94 | 0.0 | 0.0 | 0.00 | 0.00 | 0.00 | 81 | 1010.5 |
| 20260503035347 | 8 | 94 | 0.0 | 0.0 | 0.00 | 0.00 | 0.00 | 81 | 1010.4 |
| 20260503034829 | 8 | 94 | 0.0 | 0.0 | 0.00 | 0.00 | 0.00 | 80 | 1010.5 |
| 20260503034343 | 8 | 94 | 0.0 | 0.0 | 0.00 | 0.00 | 0.00 | 80 | 1010.5 |
| 20260503033900 | 8 | 94 | 0.0 | 0.0 | 0.00 | 0.00 | 0.00 | 80 | 1010.5 |
| 20260503033338 | 8 | 94 | 0.0 | 0.0 | 0.00 | 0.00 | 0.00 | 80 | 1010.5 |
| 20260503032837 | 8 | 94 | 0.0 | 0.0 | 0.00 | 0.00 | 0.00 | 79 | 1010.4 |
| 20260503032333 | 9 | 94 | 0.0 | 0.0 | 0.00 | 0.00 | 0.00 | 79 | 1010.4 |
| 20260503031903 | 9 | 94 | 0.0 | 0.0 | 0.00 | 0.00 | 0.00 | 79 | 1010.4 |
| 20260503031331 | 9 | 94 | 0.0 | 0.0 | 0.00 | 0.00 | 0.00 | 79 | 1010.4 |
| 20260503030849 | 9 | 94 | 0.0 | 0.0 | 0.00 | 0.00 | 0.00 | 79 | 1010.5 |
| 20260503030356 | 9 | 94 | 0.0 | 0.0 | 0.00 | 0.00 | 0.00 | 79 | 1010.5 |
| 20260503025837 | 9 | 94 | 0.0 | 0.0 | 0.00 | 0.00 | 0.00 | 78 | 1010.5 |
| 20260503025331 | 9 | 94 | 0.0 | 0.0 | 0.00 | 0.00 | 0.00 | 78 | 1010.5 |
| 20260503024838 | 10 | 94 | 0.0 | 0.0 | 0.00 | 0.00 | 0.00 | 77 | 1010.6 |
| 20260503024341 | 10 | 94 | 0.0 | 0.0 | 0.00 | 0.00 | 0.00 | 77 | 1010.6 |
| 20260503023856 | 10 | 94 | 0.0 | 0.0 | 0.00 | 0.00 | 0.00 | 76 | 1010.5 |